Weather in Mikhaylovka

Russia / Republic of Crimea     45°31′35″N   34°38′20″E
temp.,
°C
wind,
m/s
gust,
m/s
humid.,
%
clouds,
%
prec.,
mm/h
press.,
hPa
HPBL,
m
28 february, sun
sun2800:00+6nnw5885100 2.9 1018624
03:00+5nnw4877100 2.9 1019586
06:00+4nw5886100 0.1 1019595
09:00+4nw579298 0.2 1020531
12:00+5nw5776100 0.3 1022882
15:00+6nw6871100 0.8 1021963
18:00+5nw577393 0.3 1022839
21:00+4wnw488793 0.4 1023551
1 march, mon
mon100:00+3wnw378796 0.1 1024364
03:00+2wsw369098 0.1 1024205
06:00+2w369099 0.0 1024288
09:00+2wnw248298 0.1 1025425
12:00+5nnw226384 0.1 1026943
15:00+5nne336591 0.2 1026810
18:00+4nne346775 0.1 1027513
21:00+1ne128458 0.1 102922
2 march, tue
tue200:00+1nw128611 0.0 103022
03:00+1wnw238047 0.0 103048
06:00+2nw226898 0.0 103033
09:00+2nw347477 0.0 1030222
12:00+5wnw455525 0.0 10301224
15:00+6w565261 0.0 10291250
18:00+5w586076 0.0 1026770
21:00+2wsw6127356 0.0 1025547
3 march, wed
wed300:00+3wsw8167816 0.0 1023581
03:00+4wsw9178211 0.0 1021649
06:00+4wnw6118589 0.0 1020573
09:00+5nw6106994 0.0 10231062
12:00+7nnw785991 0.0 10241321
15:00+8nnw685167 0.0 10251339
18:00+6nnw37560 0.0 1026396
21:00+3nnw12690 0.0 102822
4 march, thu
thu400:00+2wnw22730 0.0 102822
03:00+1wsw11780 0.0 102822
06:000sw22770 0.0 102722
09:00+4sw34660 0.0 1026200
12:00+9wsw45450 0.0 10251277
15:00+10wsw56410 0.0 10231389
18:00+8wsw47560 0.0 1021387
21:00+4sw38760 0.0 1021265